Regional Weather Roundup
Issued by NWS Wakefield, VA

Home | Current Version | Previous Version | Text Only | Print | Product List | Glossary Off
Versions: 1 2 3 4 5 6 7 8 9 10 11 12 13 14 15 16 17 18 19 20 21 22 23 24 25 26 27 28

000
ASUS41 KAKQ 181010
RWRAKQ

REGIONAL WEATHER ROUNDUP
NATIONAL WEATHER SERVICE WAKEFIELD VA
600 AM EDT FRI APR 18 2014

Note: "fair" indicates few or no clouds below 12,000 feet with no
significant weather and/or obstructions to visibility. * = Denotes
station may not report precipitation (e.g., rain,snow,etc.),
thunder or fog.

VAZ042-051-052>054-056-181100-
NORTHERN VIRGINIA

CITY           SKY/WX    TMP DP  RH WIND       PRES   REMARKS
WASH NATIONAL  CLOUDY    41  31  67 E5        30.52R
DULLES         CLOUDY    31  29  92 CALM      30.51R
FORT BELVOIR   CLOUDY    34  32  94 CALM      30.52R
QUANTICO       CLOUDY    40  31  70 E7        30.53R
FREDERICKSBRG* CLOUDY    37  36  93 CALM      30.51R
STAFFORD*      CLOUDY    32  32 100 CALM      30.55S
WARRENTON      PTCLDY    32  32 100 CALM      30.50R FOG
CULPEPER*      PTCLDY    34  34 100 CALM      30.51S FOG
MANASSAS*      PTCLDY    30  30 100 CALM      30.52R
LEESBURG*      MOCLDY    34  32  93 CALM      30.52R
WINCHESTER     MOCLDY    34  32  93 CALM      30.47R
$$

VAZ048-049-060>072-079>083-181100-
CENTRAL AND SOUTH CENTRAL VIRGINIA...AND NORTH CENTRAL NORTH CAROLINA

CITY           SKY/WX    TMP DP  RH WIND       PRES   REMARKS
RICHMOND       MOCLDY    36  32  85 N6        30.48R
CHESTERFIELD*  NOT AVBL
HANOVER        PTCLDY    32  31  96 CALM      30.50R
TAPPAHANNOCK*  CLOUDY    37  33  84 CALM      30.49S
CHARLOTTSVILLE CLOUDY    39  35  86 CALM      30.47F
ORANGE*        PTCLDY    32  32 100 CALM      30.50S
LOUISA*        PTCLDY    30  28  93 CALM      30.47S FOG
FARMVILLE*     PTCLDY    36  36 100 CALM      30.46R
SOUTH HILL*    PTCLDY    37  37 100 N7        30.50R
ROANOKE RAPIDS MOSUNNY   37  36  93 N5        30.44R
RALEIGH        MOCLDY    39  35  86 N5        30.43R
$$

VAZ088>098-181100-
SOUTHEAST VIRGINIA

CITY           SKY/WX    TMP DP  RH WIND       PRES   REMARKS
NORFOLK        CLOUDY    43  37  79 N12       30.45R
VIRGINIA BEACH CLOUDY    44  37  76 N13       30.44R
NORFOLK NAVAL  CLOUDY    44  36  73 N14       30.47R
WEST POINT*    CLOUDY    42  34  73 N3        30.50R
NEWPORT NEWS   CLOUDY    46  36  68 N7        30.46R
LANGLEY AFB    CLOUDY    43  38  83 NE10      30.47R
FORT EUSTIS    CLOUDY    43  37  78 NE6       30.45R
WILLIAMSBURG*    N/A     45  37  76 N7        30.48R
FRANKLIN*      CLOUDY    43  37  81 NE8       30.45S
WAKEFIELD      CLOUDY    42  35  76 NE5       30.46S
$$

VAZ020-022-025-037-045-181100-
WESTERN AND SOUTHWEST VIRGINIA

CITY           SKY/WX    TMP DP  RH WIND       PRES   REMARKS
STAUNTON*      MOCLDY    33  29  86 CALM      30.45S
HOT SPRINGS VA MOCLDY    34  28  80 S5        30.39S
LYNCHBURG      MOCLDY    41  34  76 E5        30.45F
DANVILLE       MOCLDY    38  34  85 NE6       30.45S
MARTINSVILLE   CLOUDY    39  36  91 CALM      30.47R
ROANOKE        CLOUDY    38  32  79 SE5       30.45F
BLACKSBURG     MOCLDY    36  34  93 CALM      30.41F
DUBLIN*        CLOUDY    32  28  84 CALM      30.40F
MARION*        CLOUDY    37  25  60 CALM      30.39S
HILLSVILLE*    CLOUDY    37  27  65 CALM      30.40S
RICHLANDS*     CLOUDY    48   8  20 E3        30.31F
WISE*          CLOUDY    46  18  31 CALM      30.34R
ABINGDON*      CLOUDY    46  24  42 E6        30.34S
$$

MDZ021>025-VAZ099-100-181100-
SOUTHERN MARYLAND AND THE DELMARVA PENINSULA

CITY           SKY/WX    TMP DP  RH WIND       PRES   REMARKS
PATUXENT RIVER MOCLDY    38  30  73 NE7       30.50R
BAY BRIDGE APT CLOUDY    39  32  75 CALM      30.51R
LEONARDTOWN    CLOUDY    37  32  81 CALM      30.51R
DOVER          CLOUDY    39  33  78 NE7       30.45R
GEORGETOWN     CLOUDY    41  33  73 NE8       30.49R
EASTON         MOCLDY    41  35  76 CALM      30.54R
CAMBRIDGE      CLOUDY    41  32  70 NE6       30.50R
SALISBURY      CLOUDY    39  32  76 N6        30.48R
OCEAN CITY     CLOUDY    42  34  73 N10       30.47R
WALLOPS ISLAND CLOUDY    38  34  85 NW7       30.48R
ACCOMACK*      CLOUDY    39  32  75 N5        30.47R
$$

NCZ012>017-030>032-181100-
EASTERN NORTH CAROLINA

CITY           SKY/WX    TMP DP  RH WIND       PRES   REMARKS
ELIZABETH CITY CLOUDY    44  39  82 N13       30.43R
AHOSKIE*       CLEAR     37  35  92 CALM      30.44S
EDENTON*       CLOUDY    42  39  88 NE7       30.42R
CURRITUCK*     CLOUDY    45  39  81 N10       30.43S
KILL DEVIL HLS CLOUDY    46  43  92 N12G18    30.40R
MANTEO         CLOUDY    46  43  91 N17G23    30.40R
CAPE HATTERAS  CLOUDY    49  48  97 N15G24    30.35S
GOLDSBORO      PTCLDY    41  40  97 N6        30.39S
WASHINGTON     CLEAR     40  36  86 N6        30.41S
GREENVILLE     PTCLDY    37  36  93 N3        30.41F
NEW BERN       CLOUDY    45  40  82 N8        30.40R
WILMINGTON     MOCLDY    46  40  79 N9        30.35F
$$

VAZ048-181100-
ELSEWHERE

CITY           SKY/WX    TMP DP  RH WIND       PRES   REMARKS
HARRISBURG PA  MOCLDY    34  27  75 CALM      30.50F
BALTIMORE      CLOUDY    39  30  70 E6        30.51R
ANNAPOLIS      CLOUDY    40  32  73 E6        30.51R
ANDREWS AFB    CLOUDY    38  30  75 NE6       30.50R
WILMINGTON DE  CLOUDY    39  29  67 E6        30.51F
PHILADELPHIA   MOCLDY    39  27  62 NE7       30.51F
WILDWOOD NJ*   CLOUDY    39  30  70 NE7       30.49R
ATLANTIC CITY  CLOUDY    39  32  76 NE10      30.48S
HENDERSON NC   PTCLDY    36  35  94 N5        30.43F
GREENSBORO     MOCLDY    40  35  83 NE6       30.42R
ROCKY MOUNT      N/A    N/A N/A N/A MISG      30.42F
FAYETTEVILLE   MOCLDY    43  38  82 NE12      30.38S
CHARLOTTE      CLOUDY    47  40  76 NE7       30.39R
$$

VAZ100-181100-
MARINE

STATION/POSITION TIME  TEMP    WIND        PRES    WAVE   SWELL
                       AIR SEA DIR/SP/G            HT/PER HT/PER
                 (UTC) (F)     (DEG/KT/KT) (MB)    (FT/S) (FT/S)
44066 TX TWR #4  1000   40 44   50/ 17/ 19 1030.8F   9/ 9   7/ 9
CAPE MAY NJ      1000   40 52   40/  3/  6 1031.8R
LEWES DE         1000   41 48   60/ 11/ 16 1031.5R
15NM E FENWICK I 1000   42 44              1030.8R   7/10
OCEAN-CITY-INLET 1000   42 45   30/  9/ 14 1031.2R
WACHAPREAGUE VA  1000   39 51  330/  4/  7 1031.2R
THOMAS POINT MD  1000   39 52   80/  7/  8 1033.8R
COVE POINT MD    1000   39      80/  5/  7 1032.5R
SOLOMONS ISLAND  1000      52                N/A
BISHOPS HEAD MD  1000   40 52   20/  7/ 13 1032.1R
PINEY POINT MD   1000           30/  5/  6   N/A
POTOMAC MD       1000   41      30/ 10/ 12 1031.5R
CAMBRIDGE MD     1000   40 55   50/  7/ 10 1032.2R
LEWISETTA VA     1000   41 52   50/  5/  7 1032.1S
RAPPAHANNOCK LGT 1000           20/ 12/ 15 1032.0R
YORK RVR RNG VA  1000   44      30/ 12/ 16 1030.6F
YORKTOWN VA      1000   44 54   30/  7/ 10 1031.2S
JAMESTOWN VA     1000   42      70/  6/ 10   N/A
DOMINION TERM VA 1000   43      50/  5/  9 1031.2R
KIPTOPEKE VA     1000      52   10/  7/ 10   N/A
CHES BAY BRIDGE  1000   42 52   20/ 11/ 15 1031.0R
CAPE HENRY VA    1000   43     350/ 13/ 17   N/A
CHESAPEAKE LGHT  0900   44      10/ 16/ 18 1030.5R
WILLOUBY STN VA  1000   42      20/ 13/ 14 1030.2S
S CRANEY ISL VA  1000          350/ 10/ 15 1031.2R
CAPE HENRY BUOY  1000      47                N/A     6/10   2/12
1ST LANDING BUOY 1000      45                N/A     6/11   5/11
64NM E OF VA BCH 1000   48 49  360/ 17/ 21 1028.6R  10/10   8/10
DUCK PIER NC     1000   45 51   10/ 15/ 19 1028.5S
44100 DUCK FRF   1000      47                N/A     8/11   3/11
44056 DUCK FRF   0900      50                N/A     7/11   3/11
OREGON INLET NC  1000   46 51  350/ 16/ 20 1028.6R
HATTERAS NC      1000   50 55   10/ 16/ 23 1027.5R
CAPE LOOKOUT NC  0900   50      10/ 19/ 23 1027.0F
FRYING PAN SHLS  1000   57 64   40/ 23/ 29 1024.8F   8/ 7   3/ 9
$$



USA.gov is the U.S. government's official web portal to all federal, state and local government web resources and services.